Wind_Speed
72 72 72 72 72 72 73 73 73 72 72 73 73 73 73 72 72 71 70 71 72 73 73 73 72 72 71 72 72 71 72 72 73 74 75 75 76 76 78 79 79 80
75 75 75 75 75 76 76 76 76 76 76 76 76 76 75 75 75 74 74 75 76 76 77 77 76 76 76 75 75 75 75 75 76 77 77 77 78 78 79 80 81 81
78 78 78 78 78 79 79 79 79 79 80 80 80 79 79 78 78 78 78 78 79 79 80 80 80 80 80 79 78 78 78 79 79 80 79 79 80 80 81 81 82 82
80 81 81 81 81 82 82 82 82 82 82 82 83 83 82 82 81 81 81 82 82 82 83 83 83 83 83 83 82 82 82 82 83 82 82 82 82 82 82 83 83 84
83 83 83 83 84 84 85 85 85 85 85 85 85 85 84 84 84 84 84 85 86 86 86 86 86 87 87 87 86 86 86 86 86 85 84 84 85 84 85 85 86 86
86 86 86 86 86 86 87 87 88 88 87 87 87 87 87 87 87 87 87 88 88 89 89 89 90 90 90 90 90 90 89 89 89 88 87 87 88 88 88 88 89 89
90 89 89 89 89 89 89 90 90 90 90 90 89 89 90 90 90 90 90 91 91 91 92 92 92 92 93 92 93 93 92 92 91 91 90 90 91 91 92 92 92 92
93 93 93 92 92 92 92 92 93 93 93 92 92 92 92 92 93 93 93 93 93 94 94 94 94 94 94 94 94 95 94 94 94 93 93 93 94 94 95 95 94 94
97 96 96 95 95 95 94 95 95 95 95 95 95 96 95 95 96 96 96 96 96 97 97 97 97 97 97 97 96 96 96 96 96 96 96 96 96 96 97 97 98 98
99 99 98 98 97 97 97 97 97 97 98 98 98 99 99 99 99 99 99 99 100 100 100 100 100 100 100 99 99 99 99 99 99 99 99 99 99 99 100 101 102 103
102 101 101 100 99 99 98 98 99 99 100 100 101 101 101 101 101 101 101 101 102 102 102 102 102 102 102 102 102 102 102 102 102 102 102 102 102 103 105 107 108 109
104 103 103 102 101 101 101 101 102 102 103 103 104 104 104 104 104 104 104 104 104 105 105 105 105 105 105 106 106 105 105 105 105 106 106 107 108 109 111 112 112 112
105 104 104 104 105 105 106 106 106 107 107 107 107 107 108 108 108 108 108 108 108 109 109 109 109 109 109 109 109 109 109 109 110 111 111 112 113 113 114 114 114 114
106 107 107 108 109 110 110 110 110 110 110 110 110 110 110 111 111 111 111 111 111 111 112 112 112 113 113 114 114 114 114 115 115 116 116 116 116 116 116 117 117 117
110 111 111 112 112 113 113 113 113 113 113 112 113 113 113 113 113 114 114 114 115 115 116 116 117 118 118 119 118 118 119 119 119 119 119 119 119 119 119 120 120 121
115 115 115 115 116 116 116 116 116 116 116 116 116 116 117 117 117 118 118 118 119 119 120 120 121 121 122 122 122 122 121 121 121 122 122 122 122 122 123 123 124 124
119 118 119 119 119 119 119 119 119 119 119 119 119 120 120 120 121 121 122 122 122 123 123 124 125 125 125 125 125 125 125 125 125 125 126 126 126 126 126 127 128 128
123 123 123 123 122 122 122 122 123 123 123 123 123 123 124 124 124 125 125 126 126 127 127 128 129 129 129 129 130 130 129 129 129 129 130 130 131 131 131 132 132 132
127 127 127 127 126 126 126 126 126 126 126 126 127 127 127 128 128 129 129 129 130 130 131 132 132 133 133 133 133 133 133 133 133 133 133 134 134 135 135 136 136 136
130 130 130 129 129 129 129 128 128 129 129 129 130 130 130 130 131 131 132 132 133 133 134 134 135 136 136 136 136 136 136 136 136 137 137 137 138 138 138 139 138 138
132 132 132 132 132 132 132 131 131 132 132 132 133 133 133 134 134 134 135 135 136 136 137 138 138 139 139 139 140 140 140 140 140 140 140 140 140 140 140 140 141 141
134 134 134 134 134 134 134 135 135 135 136 137 137 137 138 138 138 138 138 139 139 139 140 140 141 142 142 142 142 142 142 142 142 142 142 142 143 143 143 143 144 144
136 136 137 137 137 137 137 138 138 139 140 140 141 141 141 141 142 142 142 142 143 143 143 144 144 145 145 145 145 146 146 146 146 146 146 147 147 148 148 148 149 149
139 139 140 140 140 140 141 141 141 142 142 143 144 144 144 145 145 145 146 146 146 147 147 148 148 149 149 150 150 150 150 150 151 151 151 151 152 152 152 152 152 152
143 143 143 143 144 144 144 145 145 146 146 146 147 147 148 148 148 149 149 150 150 151 151 152 152 153 153 153 153 153 153 153 153 153 153 153 152 152 152 152 152 151
146 146 146 147 147 147 148 148 148 149 149 150 150 150 151 151 151 151 151 152 152 152 152 153 153 153 154 154 154 154 153 153 153 153 153 153 152 152 152 152 151 151
Wind_Direction
276 277 278 278 279 279 280 280 281 281 282 282 283 283 284 285 286 286 286 285 286 287 288 288 289 289 291 292 293 294 294 295 295 295 296 297 297 298 298 299 300 301
275 275 276 277 277 278 279 279 280 281 281 281 282 283 283 284 285 285 285 285 286 287 288 288 289 289 290 291 292 293 293 293 293 293 295 295 296 296 297 297 299 299
274 275 275 276 276 277 278 278 279 279 280 281 281 282 283 283 284 284 283 284 285 286 287 288 289 289 290 290 291 291 291 291 291 292 293 294 294 294 295 296 296 297
273 274 275 275 276 277 277 278 278 278 279 279 280 281 282 282 283 283 283 283 284 286 286 287 287 288 288 289 290 290 290 290 291 292 292 292 292 293 293 294 294 295
272 272 273 274 275 276 277 277 277 278 278 278 279 280 280 281 281 282 282 283 284 285 285 286 286 287 287 288 289 289 289 290 290 291 291 291 291 292 292 293 294 295
270 271 272 273 274 275 275 276 277 277 277 278 278 279 279 280 280 281 281 282 283 284 284 285 285 286 287 288 288 289 289 289 290 290 290 290 291 291 292 293 294 295
269 270 270 271 272 273 274 275 276 277 277 277 278 278 279 279 280 280 281 282 282 283 283 284 284 285 286 287 287 287 288 288 289 289 289 290 290 291 291 292 294 294
268 269 270 270 271 272 273 275 276 277 277 278 278 279 279 279 280 280 281 281 282 282 282 283 283 284 285 285 286 286 287 287 288 288 288 289 290 290 291 292 293 293
268 269 269 270 271 272 273 274 276 277 278 278 279 279 280 280 280 280 281 281 281 282 282 282 283 283 284 284 284 285 285 286 287 287 288 289 290 290 291 292 292 293
269 269 270 270 271 272 273 274 275 276 277 278 279 279 280 280 280 281 281 281 281 281 282 282 283 283 283 284 284 284 285 285 286 287 288 289 289 290 291 292 292 293
269 269 270 271 271 272 273 274 275 276 277 277 278 278 279 279 280 280 280 280 280 281 281 281 282 282 283 283 283 284 284 285 286 287 287 288 289 289 290 291 291 292
268 269 269 270 271 271 273 274 274 275 276 276 277 277 278 278 278 278 279 279 279 280 280 280 281 281 281 282 282 283 283 284 285 285 286 287 288 288 289 290 290 291
268 269 269 270 271 272 273 274 274 275 275 276 276 277 277 277 278 278 278 278 279 279 279 280 280 280 281 281 282 282 283 283 284 285 286 287 287 288 289 289 290 290
268 269 269 270 271 272 273 274 275 275 276 276 276 277 277 277 277 278 278 278 278 279 279 279 280 280 281 281 282 283 283 284 285 286 286 287 287 288 288 289 289 290
268 269 270 271 272 272 273 274 274 275 275 276 276 276 277 277 277 277 278 278 278 279 279 280 280 281 281 282 283 283 284 285 285 286 286 287 287 287 288 288 289 289
268 269 270 271 272 272 273 273 274 274 275 275 275 276 276 276 277 277 278 278 279 279 280 280 281 281 282 282 283 283 284 284 285 285 285 286 286 287 287 288 288 288
268 269 270 271 272 272 273 273 274 274 275 275 275 276 276 276 277 277 278 278 278 279 279 280 280 280 281 281 282 282 283 283 284 284 285 285 286 286 287 287 287 288
269 270 270 271 271 272 272 273 273 274 274 274 275 275 276 276 276 277 277 278 278 279 279 279 280 280 280 281 281 282 282 283 284 284 285 285 286 286 286 287 287 287
269 270 270 271 271 272 272 272 273 273 274 274 275 275 275 276 276 277 277 278 278 279 279 279 280 280 281 281 281 282 282 283 283 284 284 285 285 285 286 286 286 287
269 270 270 271 271 272 272 273 273 273 274 274 275 275 275 276 276 276 277 277 278 278 279 279 279 280 280 281 281 282 282 282 283 283 284 284 284 285 285 285 285 286
269 269 270 271 271 272 272 272 273 273 273 274 274 274 275 275 275 275 276 276 276 277 277 278 278 279 279 280 280 281 281 281 282 282 282 283 283 283 284 284 284 285
268 269 269 270 270 271 271 272 272 273 273 273 274 274 274 274 275 275 275 276 276 276 277 277 278 278 279 279 279 280 280 281 281 281 282 282 282 282 283 283 283 284
268 268 269 269 270 270 270 271 271 271 272 272 273 273 274 274 274 275 275 275 276 276 277 277 278 278 278 279 279 280 280 280 281 281 281 281 282 282 282 283 283 283
267 268 268 269 269 269 270 270 270 271 271 272 272 273 273 274 274 275 275 276 276 276 277 277 278 278 279 279 279 280 280 280 280 281 281 281 282 282 282 283 283 283
268 268 268 269 269 270 270 270 271 271 272 272 273 273 273 274 274 275 275 276 276 277 277 278 278 279 279 279 279 280 280 280 280 281 281 281 281 282 282 283 283 283
268 269 269 270 270 271 271 271 272 272 273 273 274 274 274 275 275 276 276 277 277 277 278 278 279 279 279 279 280 280 280 280 280 280 281 281 281 282 282 282 282 283
Height
10786 10786 10786 10787 10786 10785 10783 10783 10783 10783 10782 10779 10778 10777 10776 10776 10775 10775 10774 10772 10770 10769 10767 10766 10766 10766 10766 10764 10764 10763 10761 10757 10754 10750 10749 10747 10744 10741 10738 10735 10733 10732
10779 10779 10779 10779 10778 10777 10776 10776 10775 10775 10773 10771 10771 10770 10769 10769 10768 10767 10766 10763 10762 10760 10758 10758 10758 10757 10757 10757 10757 10756 10754 10751 10747 10744 10743 10741 10737 10735 10732 10728 10726 10724
10771 10771 10771 10771 10770 10769 10769 10768 10768 10767 10765 10763 10763 10762 10762 10762 10760 10759 10757 10755 10754 10752 10750 10750 10748 10747 10747 10747 10748 10747 10745 10742 10739 10737 10737 10735 10730 10728 10725 10722 10720 10717
10763 10762 10762 10762 10761 10761 10760 10761 10760 10758 10758 10757 10755 10754 10754 10753 10752 10750 10749 10747 10747 10745 10743 10742 10739 10738 10737 10737 10738 10737 10734 10732 10730 10729 10730 10727 10723 10721 10718 10715 10713 10709
10755 10754 10754 10752 10752 10751 10751 10751 10750 10749 10750 10749 10747 10747 10746 10745 10743 10741 10740 10739 10738 10736 10734 10733 10731 10729 10728 10728 10728 10727 10725 10722 10721 10720 10721 10718 10714 10713 10711 10707 10706 10702
10745 10744 10744 10743 10743 10742 10742 10741 10740 10740 10741 10740 10740 10739 10738 10736 10735 10733 10732 10731 10729 10727 10725 10723 10722 10720 10719 10719 10718 10717 10715 10714 10712 10711 10711 10709 10705 10704 10702 10699 10698 10695
10735 10734 10734 10733 10733 10733 10733 10732 10731 10731 10731 10731 10731 10730 10729 10728 10726 10725 10723 10722 10720 10718 10716 10714 10713 10712 10710 10710 10708 10706 10705 10704 10703 10702 10702 10700 10697 10695 10692 10691 10691 10688
10724 10724 10723 10723 10723 10723 10723 10722 10722 10722 10721 10722 10721 10720 10719 10719 10717 10715 10715 10713 10711 10708 10706 10705 10704 10702 10701 10700 10699 10697 10696 10694 10693 10693 10692 10690 10688 10686 10683 10681 10682 10680
10713 10714 10713 10713 10713 10713 10714 10713 10712 10712 10712 10712 10711 10709 10709 10709 10707 10706 10705 10703 10701 10698 10696 10695 10694 10693 10691 10690 10689 10687 10686 10685 10683 10683 10682 10680 10678 10676 10673 10670 10670 10669
10702 10703 10703 10703 10703 10703 10704 10703 10703 10703 10702 10702 10701 10699 10698 10698 10697 10696 10694 10692 10690 10687 10686 10685 10683 10682 10681 10679 10678 10677 10677 10675 10673 10673 10672 10670 10668 10666 10662 10659 10658 10657
10692 10692 10692 10693 10693 10693 10693 10693 10693 10692 10692 10691 10691 10689 10688 10687 10686 10685 10683 10681 10678 10676 10675 10674 10672 10671 10670 10668 10667 10667 10667 10666 10664 10663 10661 10660 10659 10656 10652 10649 10647 10645
10681 10681 10682 10683 10683 10683 10683 10683 10683 10682 10682 10681 10680 10679 10678 10677 10676 10674 10672 10670 10667 10665 10664 10662 10661 10660 10658 10656 10655 10656 10657 10656 10654 10653 10651 10650 10648 10645 10642 10639 10636 10634
10669 10670 10671 10671 10671 10672 10672 10672 10672 10671 10671 10670 10669 10667 10666 10665 10664 10663 10661 10659 10657 10655 10653 10651 10650 10648 10646 10645 10644 10644 10645 10645 10643 10642 10640 10638 10636 10633 10630 10627 10624 10621
10657 10658 10659 10659 10659 10660 10660 10660 10660 10659 10659 10658 10656 10655 10654 10653 10652 10650 10649 10647 10645 10643 10641 10639 10638 10635 10633 10632 10632 10632 10631 10631 10630 10629 10627 10625 10623 10621 10617 10614 10611 10608
10646 10646 10646 10647 10647 10648 10647 10648 10648 10647 10646 10646 10644 10643 10641 10639 10638 10636 10635 10634 10632 10630 10628 10626 10624 10621 10619 10619 10619 10618 10618 10617 10616 10614 10613 10611 10609 10607 10604 10600 10597 10595
10634 10635 10635 10635 10635 10635 10635 10635 10635 10634 10634 10633 10632 10630 10628 10627 10625 10623 10622 10620 10618 10616 10614 10611 10609 10607 10606 10605 10604 10604 10604 10603 10602 10600 10598 10596 10595 10593 10590 10586 10583 10581
10621 10622 10623 10623 10623 10623 10622 10621 10621 10621 10621 10620 10619 10617 10615 10613 10612 10610 10608 10606 10604 10602 10599 10597 10595 10592 10592 10591 10590 10589 10589 10589 10588 10586 10583 10581 10580 10578 10576 10572 10569 10566
10608 10609 10609 10610 10610 10610 10609 10608 10608 10607 10607 10606 10605 10603 10601 10600 10598 10596 10594 10592 10590 10587 10584 10581 10579 10577 10577 10576 10575 10574 10574 10574 10574 10571 10569 10566 10564 10562 10560 10558 10555 10552
10594 10594 10595 10595 10595 10596 10595 10595 10594 10593 10593 10591 10590 10589 10587 10586 10584 10581 10579 10576 10574 10572 10569 10565 10562 10561 10560 10560 10559 10559 10558 10558 10558 10556 10555 10552 10548 10545 10543 10541 10539 10537
10579 10580 10580 10580 10580 10580 10580 10580 10579 10579 10578 10576 10575 10574 10572 10571 10569 10567 10564 10562 10559 10557 10554 10550 10546 10545 10544 10543 10543 10542 10542 10542 10541 10540 10539 10537 10533 10529 10527 10525 10522 10520
10565 10566 10566 10566 10565 10564 10564 10564 10564 10563 10562 10560 10559 10557 10556 10555 10553 10551 10549 10546 10544 10543 10540 10536 10532 10530 10529 10528 10527 10526 10526 10525 10525 10524 10523 10521 10517 10513 10511 10509 10506 10503
10551 10551 10551 10551 10550 10550 10549 10548 10547 10547 10545 10543 10541 10540 10538 10537 10536 10534 10532 10530 10528 10527 10525 10521 10516 10514 10514 10513 10511 10510 10509 10508 10508 10508 10507 10504 10500 10497 10495 10493 10490 10487
10535 10535 10535 10534 10534 10534 10534 10533 10532 10531 10528 10526 10524 10522 10521 10520 10518 10517 10515 10513 10511 10509 10508 10505 10500 10498 10497 10496 10494 10493 10492 10491 10490 10490 10488 10486 10482 10479 10477 10475 10471 10469
10518 10518 10517 10517 10516 10516 10516 10515 10515 10513 10512 10510 10508 10506 10504 10502 10501 10499 10496 10495 10493 10491 10489 10487 10483 10480 10479 10477 10476 10474 10474 10473 10472 10471 10469 10466 10464 10462 10459 10456 10452 10449
10500 10500 10499 10499 10499 10498 10497 10497 10496 10494 10493 10492 10490 10488 10486 10484 10484 10482 10479 10476 10475 10473 10471 10468 10465 10462 10459 10458 10456 10455 10455 10454 10453 10451 10450 10447 10446 10444 10441 10438 10434 10431
10484 10483 10482 10482 10480 10479 10479 10478 10477 10476 10474 10473 10472 10470 10468 10466 10465 10464 10461 10458 10455 10454 10452 10448 10446 10443 10439 10437 10436 10434 10434 10434 10433 10431 10429 10428 10427 10426 10423 10420 10417 10414